www.pogodaiklimat.ru

Погода и климат >> Архив погоды >> Россия >> Мурманская область >> Мурманск


АРХИВ ПОГОДЫ в Мурманске

Время (UTC), дата Ветер
(напр.,м/с)
 
Видим.   Явления Облачность Т
(С)
Тd
(С)
f
(%)
Тe
(С)
Тes
(С)
Комфортность P
(гПа)
Po
(гПа)
Тmin
(С)
Tmax
(С)
R
(мм)
R24
(мм)
S
(см)
09 14.01 Ю 1 10 км 10/10 200 м
[St]
-8.2 -8.8 95 -11 -11 по сезону 982.8 976.4
12 14.01 Ю 1 2000 м дымка 10/10 100 м
[St]
-9.7 -10.5 94 -12 -12 по сезону 985.0 978.6
15 14.01 Ю 1 2000 м слаб. снег 10/10 100 м
[St]
-10.4 -11.3 93 -13 -13 по сезону 986.8 980.4 0.0
18 14.01 Ю 2 10 км слаб. снег 9/8 100 м
[St Ac As]
-12.0 -13.0 92 -17 -17 по сезону 988.8 982.3 -7.0 0.1
21 14.01 Ю 3 10 км {снег} 4/0
[Ci fib]
-15.4 -16.8 89 -22 -22 холодно 990.2 983.6
00 15.01 Ю 4 10 км {снег} 9/0
[Ac lent Ci fib]
-17.3 -18.9 87 -26 -26 очень
холодно
991.3 984.7
03 15.01 ЮЗ 4 10 км 9/0
[Ci fib]
-19.1 -20.8 86 -28 -28 очень
холодно
992.2 985.5 -19.1 0.1
06 15.01 Ю 3 10 км 4/0
[Ci fib]
-20.0 -21.9 85 -28 -28 очень
холодно
992.6 985.9 -20.2 0.0 14
09 15.01 ЮЗ 4 10 км 3/0
[Ci fib]
-21.1 -23.2 83 -30 -30 очень
холодно
993.6 986.8
12 15.01 Ю 3 10 км 3/0
[Ci fib]
-21.8 -23.9 83 -30 -30 очень
холодно
993.6 986.8
15 15.01 Ю 2 10 км 3/0
[Ci fib]
-22.5 -24.7 82 -29 -29 очень
холодно
994.2 987.4 0.1
18 15.01 Ю 2 4000 м дымка 8/8 200 м
[St]
-22.3 -24.5 82 -29 -29 очень
холодно
994.7 987.9 -19.9 0.1
21 15.01 Ю 1 4000 м дымка 9/9 200 м
[St]
-21.2 -23.5 82 -24 -24 очень
холодно
995.2 988.4
00 16.01 Ю 1 4000 м дымка 8/8 200 м
[St]
-21.0 -23.3 82 -24 -24 очень
холодно
995.6 988.8
03 16.01 штиль 0 4000 м ледяные иглы 8/5 200 м
[St Ci fib]
-19.7 -21.8 83 -20 -20 прохладно 995.9 989.2 -22.9 0.1
06 16.01 штиль 0 10 км 10/0
[Ci fib]
-18.4 -20.4 84 -18 -18 по сезону 996.3 989.6 -22.6 0.1 14
09 16.01 СВ 1 2000 м дымка 9/6 1000 м
[Sc Ac lent]
-14.3 -15.8 88 -17 -17 по сезону 996.4 989.8
12 16.01 СВ 1 2000 м дымка 10/10 300 м
[St]
-11.4 -12.7 90 -14 -14 по сезону 996.0 989.5
15 16.01 С 1 10 км {снег} 10/10 300 м
[St]
-8.7 -9.6 93 -11 -11 по сезону 995.4 988.9 0.0
18 16.01 С 1 10 км слаб. ливневой снег 10/10 600 м
[Cb cap]
-7.1 -7.8 95 -10 -10 по сезону 994.7 988.3 -7.1 0.0
21 16.01 С 1 10 км слаб. ливневой снег 10/10 600 м
[Cb cap]
-6.7 -7.4 95 -9 -9 тепло 993.8 987.4
00 17.01 СВ 1 10 км слаб. ливневой снег 10/10 600 м
[Cb cap]
-6.3 -7.0 95 -9 -9 тепло 992.7 986.3
03 17.01 СВ 2 10 км слаб. ливневой снег 10/10 600 м
[Cb cap]
-6.6 -7.5 93 -11 -11 по сезону 991.7 985.3 -8.7 0.0
06 17.01 В 2 4000 м слаб. ливневой снег 10/10 600 м
[Cb cap]
-6.3 -7.1 94 -11 -11 по сезону 990.5 984.1 -7.1 0.2 15
09 17.01 В 1 10 км слаб. ливневой снег 9/5 300 м
[Cb cap Ac trans Ci sp]
-6.0 -6.8 94 -8 -8 тепло 990.2 983.8
12 17.01 СВ 1 20 км {ливн. осадки} 9/3 1000 м
[Sc Ac As Ci sp]
-5.9 -6.7 94 -8 -8 тепло 990.3 983.9
15 17.01 Ю 1 10 км слаб. ливневой снег 9/4 600 м
[Cb cap Ac As]
-6.5 -7.3 94 -9 -9 тепло 990.6 984.2 0.3
18 17.01 Ю 1 10 км {ливн. осадки} 9/0
[Ac trans]
-8.3 -9.1 94 -11 -11 по сезону 990.9 984.5 -5.7 0.3
21 17.01 штиль 0 10 км 9/0
[Ac trans Cs]
-7.9 -8.6 95 -9 -9 тепло 991.8 985.4
00 18.01 ЮВ 1 10 км 9/6 300 м
[St Ac trans]
-9.2 -10.1 93 -12 -12 по сезону 992.7 986.3
03 18.01 штиль 0 10 км 9/6 1000 м
[Sc Ac lent]
-9.2 -10.0 94 -10 -10 по сезону 993.3 986.8 -10.7 0.0
06 18.01 Ю 1 10 км 9/6 1000 м
[Sc Ac trans Ci fib]
-9.9 -10.8 93 -12 -12 по сезону 994.4 987.9 -10.7 15
09 18.01 ЮЗ 3 10 км 9/9 600 м
[Sc]
-10.9 -11.9 92 -17 -17 по сезону 995.6 989.1
12 18.01 ЮЗ 2 10 км 8/6 600 м
[Sc Ac trans]
-10.4 -11.4 92 -15 -15 по сезону 996.6 990.1
15 18.01 Ю 2 10 км 9/9 600 м
[Sc]
-11.0 -11.9 93 -16 -16 по сезону 997.8 991.3
18 18.01 Ю 3 10 км {ливн. осадки} 9/9 1000 м
[Sc]
-10.7 -11.7 92 -17 -17 по сезону 998.5 992.0 -9.9 0.0
21 18.01 Ю 2 10 км 4/0
[Ac trans]
-12.2 -13.4 91 -17 -17 по сезону 999.5 992.9
00 19.01 Ю 3 10 км ясно -15.1 -16.5 89 -22 -22 холодно 1000.2 993.6
03 19.01 Ю 2 10 км 5/0
[Ci fib]
-17.7 -19.5 86 -23 -23 холодно 1000.7 994.0 -17.7 0.1
06 19.01 Ю 2 4000 м дымка 3/0
[Ci fib]
-18.8 -20.8 84 -24 -24 холодно 1001.4 994.6 -18.9 0.1 15
09 19.01 Ю 2 10 км 3/0
[Ci fib]
-20.5 -22.7 82 -26 -26 очень
холодно
1002.3 995.5
12 19.01 Ю 2 4000 м дымка 4/0
[Ci fib]
-20.9 -23.2 82 -27 -27 очень
холодно
1003.0 996.2
15 19.01 Ю 1 2000 м дымка 3/3 200 м
[St]
-21.7 -24.1 81 -25 -25 очень
холодно
1003.8 996.9 0.1
18 19.01 Ю 1 4000 м дымка 4/4 200 м
[St]
-23.3 -25.8 80 -27 -27 очень
холодно
1004.6 997.7 -18.7 0.1
21 19.01 Ю 1 4000 м дымка 3/3 200 м
[St]
-23.9 -26.5 79 -27 -27 очень
холодно
1005.8 998.9
00 20.01 штиль 0 4000 м дымка 4/4 200 м
[St]
-24.8 -27.5 78 -25 -25 очень
холодно
1006.7 999.7
03 20.01 штиль 0 2000 м дымка 3/3 200 м
[St]
-25.6 -28.4 77 -26 -26 очень
холодно
1006.9 999.9 -25.7 0.1
06 20.01 Ю 3 2000 м дымка 8/3 300 м
[St Ac trans]
-25.1 -27.8 78 -34 -34 опасность
обморожения
1007.3 1000.3 -26.3 0.1 15
09 20.01 Ю 4 10 км 9/3 200 м
[St Ac lent Ci fib]
-25.7 -28.5 77 -36 -36 опасность
обморожения
1008.4 1001.4
12 20.01 Ю 4 10 км 9/4 600 м
[Sc Ci fib]
-25.5 -28.2 78 -36 -36 опасность
обморожения
1009.0 1002.0
15 20.01 Ю 4 10 км 9/0
[Ac trans Ci fib]
-23.0 -25.5 80 -33 -33 опасность
обморожения
1008.9 1002.0
18 20.01 Ю 3 10 км 4/0
[Ci fib]
-21.9 -24.3 81 -30 -30 очень
холодно
1008.3 1001.4 -21.9 0.1
21 20.01 Ю 3 10 км 3/0
[Ci fib]
-21.0 -23.4 81 -29 -29 очень
холодно
1008.2 1001.3
00 21.01 Ю 3 10 км 3/0
[Ci fib]
-21.6 -24.0 81 -30 -30 очень
холодно
1008.0 1001.1
03 21.01 Ю 3 10 км ясно -21.6 -23.9 82 -30 -30 очень
холодно
1007.1 1000.2 -23.1
06 21.01 Ю 1 10 км ясно -20.6 -22.9 82 -24 -24 холодно 1006.2 999.4 -22.4 15

 

Местоположение метеостанции Мурманск (Мурманская область, Россия): широта 68.97 долгота 33.05 высота над уровнем моря 51 м.

В архиве по умолчанию представлена погода в Мурманске за последнюю неделю. Архивные данные за месяц целиком и за предыдущие месяцы, начиная с января 2011 года, Вы можете получить, выбрав интересующий диапазон дат из раскрывающегося списка и нажав кнопку "Ввод!".


*Определитесь, кто Вы:
робот инопланетянин человек

Внимание! Время в таблицах - всемирное. Для получения местного времени необходимо прибавить поправку, которая равна 3 ч.

Смотрите также архив погоды в соседних городах и на ближайших метеорологических станциях:

Погода в Североморске (Мурманская область, Россия) (20 км)
Погода в Полярном (Мурманская область, Россия) (31 км)
Погода в Ура-Губе (Мурманская область, Россия) (36 км)
Погода в Мурманске аэропорт (Мурманская область, Россия) (42 км)
Погода в Падуне (Мурманская область, Россия) (63 км)
Погода в Пулозере (Мурманская область, Россия) (70 км)
Погода в Перевале (Мурманская область, Россия) (70 км)
Погода в Цып-Наволоке (Мурманская область, Россия) (85 км)
Погода в Териберке (Мурманская область, Россия) (86 км)
Погода в Порту Лиинахамари (Мурманская область, Россия) (99 км)

Пояснения к столбцам:

Ветер - указаны скорость ветра в м/с - средняя за 10 мин, порывы в срок и между сроками (в фигурных скобках) и направление, откуда дует ветер: С - северный, СВ - северо-восточный, В - восточный, ЮВ - юго-восточный, Ю - южный, ЮЗ - юго-западный, З - западный, СЗ - северо-западный.
Видимость - горизонтальная дальность видимости в метрах или километрах. При видимости от 1 до 10 км при отсутствии осадков обычно наблюдается дымка, при ухудшении видимости до 1 км и менее - туман. В сухую погоду видимость может ухудшаться дымом, пылью или мглою.
Явления - указаны атмосферные явления, наблюдавшиеся в срок или в последний час перед сроком; фигурными скобками обозначены явления, наблюдавшиеся между сроками (за 1-3 часа до срока); квадратными скобками обозначены град или гололедные отложения с указанием их диаметра в мм.
Облачность - указаны через наклонную черту общая и нижняя облачность в баллах и высота нижней границы облаков в метрах; квадратными скобками обозначены формы облаков: Ci - перистые, Cs - перисто-слоистые, Cc - перисто-кучевые, Ac - высококучевые, As - высокослоистые, Sc - слоисто-кучевые, Ns - слоисто-дождевые, Cu - кучевые, Cb - кучево-дождевые. Подробнее классификацию облаков см. в Атласе облаков (PDF).
T - Температура воздуха - температура, измеренная на высоте 2 м над землей.
Td - Температура точки росы - температура, при понижении до которой содержащийся в воздухе водяной пар достигнет насыщения.
f - Относительная влажность воздуха - влажноcть воздуха, измеренная на высоте 2 м над землей.
Te - Эффективная температура - температура, которую ощущает одетый по сезону человек в тени. Характеристика душности погоды. При расчете учитывается влияние влажности воздуха и скорости ветра на теплоощущения человека.
Tes - Эффективная температура на солнце - температура, которую ощущает человек, с поправкой на солнечный нагрев. Характеристика знойности погоды. Зависит от высоты солнца над горизонтом, облачности и скорости ветра. Ночью, в пасмурную погоду, а также при ветре 12 м/с и более поправка равна нулю.
P - Атмосферное давление - приведенное к уровню моря атмосферное давление.
Po - Атмосферное давление - измеренное на уровне метеостанции атмосферное давление.
Tmin - Минимальная температура - минимум температуры воздуха на высоте 2 м над землей.
Tmax - Максимальная температура - максимум температуры воздуха на высоте 2 м над землей.
R - Количество осадков - Количество выпавших осадков за период времени, мм. При наведении курсора мыши на число - период времени, за который выпало указанное количество осадков.
R24 - Количество осадков - Количество выпавших осадков за 24 часа, мм.
S - Снежный покров - Высота снежного покрова, см. При наведении курсора мыши на число - состояние снежного покрова и степень покрытия местности в баллах.